#timestamp,LO_Frequency,Hit,StdDev 
1626102015.9,286046981.4,Y
1626102035.7,286046993.6,P
1626102055.5,286046996.0,N
1626102075.4,286046997.6,N
1626102095.2,286046996.0,N
1626102115.0,286046994.2,N
1626102116.0,286046994.2,N
1626102135.8,286046994.2,N
1626102185.7,286046990.4,E
1626102195.6,286046997.6,N
1626102215.4,286047005.3,P
1626102235.3,286047009.0,N
1626102255.1,286047012.1,N
1626102256.0,286047012.1,N
1626102275.8,286047008.9,N
1626102295.7,286047004.5,N
1626102315.5,286047004.1,N
1626102335.3,286047004.4,N
1626102355.2,286047005.8,N
1626102375.0,286047010.5,N
1626102375.9,286047010.5,N
1626102395.8,286047013.2,Y
1626102415.6,286047003.9,P
1626102435.4,286047002.6,N
1626102455.3,286046999.5,N
1626102475.1,286046992.2,N
1626102495.8,286046990.9,N
1626102515.7,286046989.6,N
1626102535.5,286046989.8,N
1626102555.4,286046987.1,N
1626102575.2,286046987.6,N
1626102595.0,286046989.0,N
1626102595.9,286046989.0,N
1626102615.8,286046994.8,N
1626102635.6,286046992.3,N
1626102655.4,286046993.0,N
1626102675.3,286046990.2,N
1626102695.1,286046991.9,N
1626102715.9,286046990.6,N
1626102735.7,286046992.0,N
1626102755.5,286046992.5,N
1626102775.4,286046988.7,N
1626102795.2,286046989.1,N
1626102815.1,286046989.0,N
1626102816.0,286046989.0,N
1626102835.8,286046988.7,N
1626102855.6,286046987.1,N
1626102875.5,286046989.5,N
1626102895.3,286046985.3,N
1626102915.1,286046987.8,N
1626102935.9,286046987.2,N
1626102955.7,286046987.6,N
1626102975.6,286046987.4,N
1626102995.4,286046987.6,Y
1626103015.2,286046995.2,P
1626103035.1,286046999.6,N
1626103036.0,286046999.6,N
1626103055.8,286047002.8,N
1626103075.7,286047003.7,N
1626103095.5,286047005.1,N
1626103115.3,286047006.1,N
1626103135.2,286047014.4,N
1626103155.0,286047019.0,N
1626103155.9,286047019.0,N
1626103175.8,286047021.5,N
1626103195.6,286047019.1,N
1626103215.4,286047020.0,N
1626103235.3,286047020.2,N
1626103255.1,286047019.3,N
1626103275.8,286047020.3,N
1626103295.7,286047023.5,N
1626103315.5,286047023.9,N
1626103335.4,286047026.1,N
1626103355.2,286047022.5,N
1626103375.0,286047020.9,N
1626103375.9,286047020.9,N
1626103395.8,286047017.7,N
1626103415.6,286047011.2,N
1626103435.4,286047011.8,N
1626103455.3,286047008.2,N
1626103475.1,286047009.3,N
1626103495.9,286047011.2,N
1626103515.7,286047010.1,N
1626103535.5,286047008.5,N
1626103555.4,286047011.9,N
1626103575.2,286047010.5,N
1626103595.0,286047011.0,N
1626103595.9,286047011.0,N
1626103615.8,286047011.0,N
1626103635.6,286047012.2,N
1626103655.5,286047009.7,N
1626103675.3,286047007.5,N
1626103695.1,286047005.1,N
1626103715.9,286047002.2,N
1626103735.7,286046999.9,N
1626103755.6,286046997.5,N
1626103775.4,286046995.1,N
1626103795.2,286046995.8,N
1626103815.1,286046995.0,N
1626103816.0,286046995.0,N
1626103835.8,286046995.9,N
1626103855.7,286046995.5,N
1626103875.5,286046992.1,N
1626103895.3,286046994.5,N
1626103915.2,286046995.8,N
1626103935.0,286046993.3,N
1626103935.9,286046993.3,N
1626103955.7,286046995.2,N
1626103975.6,286046997.5,N
1626103995.4,286046999.1,N
1626104015.3,286046998.4,N
1626104035.1,286047000.4,N
1626104036.0,286047000.4,N
1626104055.8,286046998.8,N
1626104075.7,286046997.9,N
1626104095.5,286046993.7,N
1626104115.3,286046992.7,N
1626104135.2,286046995.1,N
1626104155.0,286046995.8,N
1626104155.9,286046995.8,N
1626104175.8,286046995.3,N
1626104195.6,286046997.0,N
1626104215.4,286047000.4,N
1626104235.3,286046998.6,N
1626104255.1,286046999.0,N
1626104275.9,286046997.8,N
1626104295.7,286046996.2,N
1626104315.5,286046997.6,N
1626104335.4,286046997.2,N
1626104355.2,286046995.4,N
1626104375.0,286046997.8,N
1626104375.9,286046997.8,N
1626104395.8,286046997.1,N
1626104415.6,286046998.0,N
1626104435.5,286046996.3,N
1626104455.3,286046992.7,Y
1626104475.1,286046994.6,P
1626104495.9,286047006.0,P
1626104515.7,286047022.2,P
1626104535.5,286047019.8,N
1626104555.4,286047024.0,N
1626104575.2,286047021.0,N
1626104595.1,286047020.9,N
1626104596.0,286047020.9,N
1626104615.8,286047020.8,N
1626104635.6,286047016.5,N
1626104655.5,286047015.5,N
1626104675.3,286047009.3,N
1626104695.1,286047011.2,N
1626104715.9,286047012.4,N
1626104735.7,286047021.6,N
1626104755.5,286047021.7,N
1626104775.4,286047020.9,N
1626104795.2,286047020.0,N
1626104815.1,286047015.7,N
1626104816.0,286047015.7,N
1626104835.8,286047016.4,N
1626104855.6,286047016.5,N
1626104875.5,286047015.5,N
1626104895.3,286047013.8,N
1626104915.1,286047014.0,N
1626104935.9,286047011.7,N
1626104955.7,286047025.2,Y
1626104975.6,286047006.8,P
1626104995.4,286047003.7,N
1626105015.2,286047007.3,N
1626105035.1,286047004.5,N
1626105036.0,286047004.5,N
1626105055.8,286047004.6,N
1626105075.7,286047001.8,N
1626105095.5,286047001.1,N
1626105115.3,286047001.0,N
1626105135.2,286047000.2,N
1626105155.0,286047002.2,N
1626105155.9,286047002.2,N
1626105175.7,286047000.7,N
1626105195.6,286047001.1,N
1626105215.4,286046998.2,N
1626105235.3,286046998.4,N
1626105255.1,286047000.8,N
1626105256.0,286047000.8,N
1626105275.8,286047000.3,N
1626105295.7,286046998.4,N
1626105315.9,286046999.3,N
1626105335.7,286046998.8,N
1626105355.6,286046998.4,N
1626105375.4,286046999.3,N
1626105395.2,286046997.1,N
1626105415.1,286046998.0,N
1626105416.0,286046998.0,N
1626105435.8,286046997.3,N
1626105455.7,286046998.7,N
1626105475.5,286046998.8,N
1626105495.3,286046997.1,N
1626105515.2,286046999.2,N
1626105535.0,286046999.1,N
1626105535.9,286046999.1,N
1626105555.8,286046996.9,N
1626105575.6,286046996.7,N
1626105595.4,286046995.4,N
